TimeCST,TemperatureF,Dew PointF,Humidity,Sea Level PressureIn,VisibilityMPH,Wind Direction,Wind SpeedMPH,Gust SpeedMPH,PrecipitationIn,Events,Conditions,WindDirDegrees,DateUTC
12:53 AM,48.9,43.0,80,29.93,10.0,South,8.1,-,N/A,,Clear,190,2012-12-19 06:53:00
1:53 AM,48.0,43.0,83,29.94,10.0,South,8.1,-,N/A,,Clear,190,2012-12-19 07:53:00
2:53 AM,48.0,43.0,83,29.94,10.0,South,6.9,-,N/A,,Clear,180,2012-12-19 08:53:00
3:53 AM,48.9,44.1,83,29.94,10.0,SSE,5.8,-,N/A,,Clear,160,2012-12-19 09:53:00
4:53 AM,48.9,44.1,83,29.94,10.0,South,9.2,-,N/A,,Clear,170,2012-12-19 10:53:00
5:53 AM,48.0,44.1,86,29.96,10.0,SSE,6.9,-,N/A,,Clear,160,2012-12-19 11:53:00
6:53 AM,48.0,44.1,86,29.97,10.0,SSE,5.8,-,N/A,,Clear,160,2012-12-19 12:53:00
7:53 AM,52.0,46.0,80,29.97,10.0,South,9.2,-,N/A,,Clear,170,2012-12-19 13:53:00
8:53 AM,54.0,48.0,80,29.99,10.0,South,10.4,-,N/A,,Clear,170,2012-12-19 14:53:00
9:53 AM,60.1,52.0,75,29.97,10.0,SSE,11.5,-,N/A,,Clear,160,2012-12-19 15:53:00
10:53 AM,64.9,55.9,73,29.96,10.0,South,16.1,-,N/A,,Clear,190,2012-12-19 16:53:00
11:53 AM,69.1,57.0,65,29.92,10.0,South,17.3,-,N/A,,Clear,180,2012-12-19 17:53:00
12:53 PM,70.0,55.0,59,29.88,10.0,South,19.6,26.5,N/A,,Clear,180,2012-12-19 18:53:00
1:53 PM,72.0,55.0,55,29.86,10.0,South,13.8,20.7,N/A,,Clear,170,2012-12-19 19:53:00
2:53 PM,72.0,53.1,51,29.85,10.0,South,15.0,-,N/A,,Clear,170,2012-12-19 20:53:00
3:53 PM,70.0,55.9,61,29.85,10.0,SSE,10.4,-,N/A,,Clear,150,2012-12-19 21:53:00
4:53 PM,66.9,55.0,66,29.84,10.0,SE,9.2,-,N/A,,Clear,140,2012-12-19 22:53:00
5:53 PM,68.0,52.0,56,29.82,10.0,SE,11.5,-,N/A,,Mostly Cloudy,140,2012-12-19 23:53:00
6:53 PM,66.9,51.1,57,29.82,10.0,SSE,12.7,-,N/A,,Mostly Cloudy,150,2012-12-20 00:53:00
7:53 PM,66.0,52.0,60,29.80,10.0,SE,15.0,-,N/A,,Overcast,140,2012-12-20 01:53:00
8:53 PM,64.9,53.1,65,29.78,10.0,SSE,16.1,-,N/A,,Overcast,150,2012-12-20 02:53:00
9:53 PM,64.9,54.0,68,29.76,10.0,SSE,11.5,-,N/A,,Scattered Clouds,150,2012-12-20 03:53:00
10:12 PM,64.4,55.4,73,29.73,10.0,SSE,13.8,21.9,N/A,,Mostly Cloudy,160,2012-12-20 04:12:00
10:53 PM,64.9,57.0,75,29.75,10.0,SSE,12.7,-,N/A,,Overcast,150,2012-12-20 04:53:00
11:53 PM,64.0,60.1,87,29.73,10.0,SSE,10.4,-,0.03,,Overcast,160,2012-12-20 05:53:00